Location: Allie Creek
(37.5926°N, 89.8526°W)
Time: 03:18:07
(UTC+00:00)

SL-16 R/B - Pass Details

Date: 25 April 2024
Orbit: 841 x 845 km, 71.0° (Epoch: 27 May)

Event Time Altitude Azimuth Distance (km) Brightness Sun altitude
Exits shadow 03:00:02 14° 58° (ENE) 2,170 4.2 -24.3°
Drops below altitude 10° 03:01:06 10° 50° (NE) 2,467 4.5 -24.4°
Sets 03:03:59 0° 37° (NE) 3,407 5.4 -24.8°
